• In Uzbekistan
  • List of Countries
  • For 7 days
  • Water Temperature
  • Satellite Maps
  • Weather Map
  • Weather Widgets
  • user-avatar
    Login

    Hourly Weather Pszczeliny

    Today, 27 March, Wednesday

    Time Temperature Precipitation Wind Pressure Humidity
    00:00 -2°C° 0.2 mm 4 mps 711 mmHg 79%
    01:00 -2°C° 0.2 mm 3 mps 711 mmHg 80%
    02:00 -2°C° 0.2 mm 3 mps 711 mmHg 80%
    03:00 -4°C° 0 mm 3 mps 712 mmHg 84%
    04:00 -4°C° 0 mm 2 mps 712 mmHg 88%
    05:00 -5°C° 0 mm 2 mps 712 mmHg 92%
    06:00 -5°C° 0 mm 2 mps 713 mmHg 87%
    07:00 -5°C° 0 mm 3 mps 714 mmHg 82%
    08:00 -4°C° 0 mm 4 mps 714 mmHg 78%
    09:00 -3°C° 0 mm 4 mps 715 mmHg 68%
    10:00 -2°C° 0 mm 4 mps 716 mmHg 59%
    11:00 0°C° 0 mm 4 mps 716 mmHg 50%
    12:00 0°C° 0 mm 4 mps 716 mmHg 47%
    13:00 +1°C° 0 mm 4 mps 717 mmHg 44%
    14:00 +3°C° 0 mm 4 mps 717 mmHg 41%
    15:00 +3°C° 0 mm 4 mps 717 mmHg 44%
    16:00 +3°C° 0 mm 3 mps 717 mmHg 46%
    17:00 +3°C° 0 mm 3 mps 716 mmHg 49%
    18:00 +2°C° 0 mm 2 mps 716 mmHg 58%
    19:00 -1°C° 0 mm 2 mps 717 mmHg 66%
    20:00 0°C° 0 mm 1 mps 717 mmHg 75%
    21:00 -1°C° 0 mm 1 mps 717 mmHg 75%
    22:00 -2°C° 0 mm 0 mps 717 mmHg 74%
    23:00 -2°C° 0 mm 0 mps 717 mmHg 74%

    Tomorrow, 28 March, Thursday

    Time Temperature Precipitation Wind Pressure Humidity
    00:00 -2°C° 0 mm 0 mps 718 mmHg 72%
    01:00 -2°C° 0 mm 0 mps 718 mmHg 70%
    02:00 -2°C° 0 mm 0 mps 718 mmHg 68%
    03:00 0°C° 0 mm 1 mps 718 mmHg 67%
    04:00 0°C° 0 mm 1 mps 717 mmHg 66%
    05:00 +1°C° 0 mm 1 mps 717 mmHg 65%
    06:00 +1°C° 0.1 mm 1 mps 717 mmHg 69%
    07:00 +2°C° 0.1 mm 1 mps 717 mmHg 73%
    08:00 +2°C° 0.1 mm 1 mps 718 mmHg 77%
    09:00 +3°C° 0.3 mm 1 mps 718 mmHg 78%
    10:00 +3°C° 0.3 mm 1 mps 718 mmHg 79%
    11:00 +4°C° 0.3 mm 1 mps 718 mmHg 80%
    12:00 +5°C° 0.1 mm 1 mps 718 mmHg 79%
    13:00 +4°C° 0.1 mm 2 mps 718 mmHg 79%
    14:00 +5°C° 0.1 mm 2 mps 718 mmHg 78%
    15:00 +6°C° 0 mm 2 mps 718 mmHg 78%
    16:00 +6°C° 0 mm 2 mps 718 mmHg 79%
    17:00 +6°C° 0 mm 2 mps 718 mmHg 79%
    18:00 +5°C° 0 mm 2 mps 718 mmHg 84%
    19:00 +4°C° 0 mm 1 mps 719 mmHg 89%
    20:00 +3°C° 0 mm 1 mps 719 mmHg 95%
    21:00 +3°C° 0 mm 1 mps 719 mmHg 95%
    22:00 +2°C° 0 mm 1 mps 719 mmHg 96%
    23:00 +1°C° 0 mm 0 mps 720 mmHg 97%

    Day after tomorrow, 29 March, Friday

    Time Temperature Precipitation Wind Pressure Humidity
    00:00 +2°C° 0 mm 1 mps 720 mmHg 97%
    01:00 +2°C° 0 mm 1 mps 720 mmHg 97%
    02:00 +2°C° 0 mm 1 mps 720 mmHg 97%
    03:00 +1°C° 0 mm 1 mps 720 mmHg 96%
    04:00 +1°C° 0 mm 1 mps 720 mmHg 95%
    05:00 +1°C° 0 mm 1 mps 720 mmHg 95%
    06:00 +2°C° 0 mm 1 mps 720 mmHg 91%
    07:00 +3°C° 0 mm 1 mps 720 mmHg 88%
    08:00 +4°C° 0 mm 1 mps 720 mmHg 84%
    09:00 +5°C° 0 mm 1 mps 720 mmHg 79%
    10:00 +5°C° 0 mm 2 mps 720 mmHg 74%
    11:00 +6°C° 0 mm 2 mps 721 mmHg 69%
    12:00 +7°C° 0 mm 2 mps 720 mmHg 68%
    13:00 +7°C° 0 mm 2 mps 720 mmHg 67%
    14:00 +8°C° 0 mm 2 mps 720 mmHg 66%
    15:00 +8°C° 0 mm 2 mps 719 mmHg 67%
    16:00 +8°C° 0 mm 2 mps 719 mmHg 68%
    17:00 +8°C° 0 mm 2 mps 718 mmHg 69%
    18:00 +7°C° 0 mm 1 mps 718 mmHg 76%
    19:00 +5°C° 0 mm 1 mps 718 mmHg 82%
    20:00 +3°C° 0 mm 0 mps 718 mmHg 89%
    21:00 +2°C° 0 mm 0 mps 718 mmHg 89%
    22:00 +2°C° 0 mm 0 mps 718 mmHg 89%
    23:00 +2°C° 0 mm 0 mps 718 mmHg 89%

    30 March, Saturday

    Time Temperature Precipitation Wind Pressure Humidity
    00:00 +2°C° 0 mm 0 mps 718 mmHg 89%
    01:00 +2°C° 0 mm 0 mps 718 mmHg 89%
    02:00 +2°C° 0 mm 0 mps 718 mmHg 89%
    03:00 +2°C° 0 mm 0 mps 718 mmHg 89%
    04:00 +2°C° 0 mm 0 mps 718 mmHg 89%
    05:00 +1°C° 0 mm 0 mps 718 mmHg 90%
    06:00 +3°C° 0 mm 0 mps 718 mmHg 87%
    07:00 +4°C° 0 mm 0 mps 718 mmHg 85%
    08:00 +5°C° 0 mm 0 mps 718 mmHg 82%
    09:00 +7°C° 0 mm 0 mps 718 mmHg 76%
    10:00 +11°C° 0 mm 1 mps 718 mmHg 70%
    11:00 +13°C° 0 mm 1 mps 718 mmHg 64%
    12:00 +14°C° 0 mm 1 mps 718 mmHg 60%
    13:00 +14°C° 0 mm 1 mps 717 mmHg 57%
    14:00 +15°C° 0 mm 1 mps 717 mmHg 53%
    15:00 +15°C° 0 mm 1 mps 717 mmHg 54%
    16:00 +14°C° 0 mm 1 mps 716 mmHg 56%
    17:00 +14°C° 0 mm 1 mps 716 mmHg 57%
    18:00 +12°C° 0 mm 1 mps 715 mmHg 66%
    19:00 +10°C° 0 mm 1 mps 715 mmHg 75%
    20:00 +7°C° 0 mm 0 mps 715 mmHg 84%
    21:00 +6°C° 0 mm 0 mps 715 mmHg 85%
    22:00 +7°C° 0 mm 1 mps 714 mmHg 86%
    23:00 +6°C° 0 mm 1 mps 714 mmHg 87%

    31 March, Sunday

    Time Temperature Precipitation Wind Pressure Humidity
    00:00 +6°C° 0 mm 1 mps 714 mmHg 88%
    01:00 +6°C° 0 mm 1 mps 714 mmHg 88%
    02:00 +6°C° 0 mm 1 mps 713 mmHg 89%
    03:00 +5°C° 0 mm 1 mps 713 mmHg 89%
    04:00 +5°C° 0 mm 1 mps 713 mmHg 89%
    05:00 +5°C° 0 mm 1 mps 712 mmHg 89%
    06:00 +6°C° 0 mm 1 mps 712 mmHg 85%
    07:00 +7°C° 0 mm 1 mps 712 mmHg 82%
    08:00 +8°C° 0 mm 1 mps 712 mmHg 78%
    09:00 +9°C° 0 mm 2 mps 712 mmHg 70%
    10:00 +12°C° 0 mm 2 mps 712 mmHg 62%
    11:00 +14°C° 0 mm 2 mps 712 mmHg 54%
    12:00 +14°C° 0 mm 2 mps 712 mmHg 52%
    13:00 +15°C° 0 mm 2 mps 711 mmHg 50%
    14:00 +15°C° 0 mm 2 mps 711 mmHg 48%
    15:00 +15°C° 0 mm 2 mps 710 mmHg 50%
    16:00 +15°C° 0 mm 2 mps 710 mmHg 52%
    17:00 +14°C° 0 mm 2 mps 710 mmHg 54%
    18:00 +12°C° 0 mm 2 mps 709 mmHg 61%
    19:00 +10°C° 0 mm 1 mps 709 mmHg 69%
    20:00 +8°C° 0 mm 1 mps 709 mmHg 77%
    21:00 +8°C° 0 mm 1 mps 709 mmHg 77%
    22:00 +8°C° 0 mm 1 mps 709 mmHg 77%
    23:00 +7°C° 0 mm 1 mps 709 mmHg 77%

    1 April, Monday

    Time Temperature Precipitation Wind Pressure Humidity
    00:00 +8°C° 0 mm 1 mps 710 mmHg 78%
    01:00 +7°C° 0 mm 2 mps 710 mmHg 79%
    02:00 +7°C° 0 mm 3 mps 711 mmHg 80%
    03:00 +5°C° 0.2 mm 3 mps 711 mmHg 83%
    04:00 +4°C° 0.2 mm 3 mps 711 mmHg 86%
    05:00 +3°C° 0.2 mm 4 mps 711 mmHg 89%
    06:00 +1°C° 0 mm 4 mps 712 mmHg 83%
    07:00 0°C° 0 mm 4 mps 712 mmHg 78%
    08:00 0°C° 0 mm 4 mps 713 mmHg 72%
    09:00 +1°C° 0 mm 4 mps 713 mmHg 70%
    10:00 +1°C° 0 mm 5 mps 714 mmHg 67%
    11:00 +2°C° 0 mm 5 mps 714 mmHg 64%
    12:00 +1°C° 0.2 mm 5 mps 714 mmHg 64%
    13:00 +1°C° 0.2 mm 4 mps 713 mmHg 64%
    14:00 +1°C° 0.2 mm 4 mps 713 mmHg 63%
    15:00 +1°C° 0 mm 5 mps 713 mmHg 60%
    16:00 +2°C° 0 mm 5 mps 713 mmHg 57%
    17:00 +2°C° 0 mm 5 mps 713 mmHg 55%
    18:00 +1°C° 0 mm 5 mps 713 mmHg 59%
    19:00 0°C° 0 mm 5 mps 713 mmHg 63%
    20:00 -1°C° 0 mm 4 mps 713 mmHg 67%
    21:00 -2°C° 0 mm 4 mps 713 mmHg 67%
    22:00 -2°C° 0 mm 4 mps 713 mmHg 67%
    23:00 -2°C° 0 mm 4 mps 713 mmHg 66%
    Show more